Regional Weather Roundup
Issued by NWS Cleveland, OH

Home | Current Version | Previous Version | Text Only | Print | Product List | Glossary Off
Versions: 1 2 3 4 5 6 7 8 9 10 11 12 13 14 15 16 17 18 19 20 21 22 23 24 25 26 27 28 29 30 31 32 33 34 35 36 37 38 39 40 41 42 43 44 45 46 47 48 49 50

000
ASUS41 KCLE 011202
RWRCLE
OHIO REGIONAL WEATHER ROUNDUP
NATIONAL WEATHER SERVICE CLEVELAND, OH
800 AM EDT WED OCT 01 2014

NOTE: "FAIR" INDICATES FEW OR NO CLOUDS BELOW 12,000 FEET WITH NO
SIGNIFICANT WEATHER AND/OR OBSTRUCTIONS TO VISIBILITY.

OHZ001>008-015>018-024>027-034-035-043-044-011300-
   NORTHWEST OHIO

CITY           SKY/WX    TMP DP  RH WIND       PRES   REMARKS
DEFIANCE       CLEAR     47  45  93 NE3       30.04R FOG
FINDLAY        CLOUDY    50  48  93 N3        30.03R
TOLEDO EXPRESS CLEAR     47  46  97 NW3       30.04R VSB 1
TOLEDO EXEC    FAIR      47  44  90 CALM      30.05R
LIMA           FOG       48  46  93 NE3       30.03R VSB 1/4
$$

OHZ009>014-019>023-028>033-038-089-011300-
   NORTHEAST OHIO

CITY           SKY/WX    TMP DP  RH WIND       PRES   REMARKS
CLE-HOPKINS    CLOUDY    57  54  89 CALM      30.04R
CLE-LAKEFRONT  CLOUDY    60  55  83 N3        30.01S
CUY CO. ARPT   MOCLDY    59  57  94 N5        30.02S
LORAIN-ELYRIA  CLOUDY    58  54  86 CALM      30.03R
ASHTABULA      FOG       51  50  96 CALM      30.03R VSB<1/4
AKRON-CANTON   CLOUDY    56  53  90 NE6       30.02R
WOOSTER        CLOUDY    56  53  90 CALM      30.03R FOG
MANSFIELD      CLOUDY    52  52 100 N6        30.02S
YOUNGSTOWN     FOG       55  55 100 CALM      30.02R VSB 1/8
$$

OHZ042-051>053-060>062-070>072-077>081-011300-
  SOUTHWEST OHIO

CITY           SKY/WX    TMP DP  RH WIND       PRES   REMARKS
CINC-COVINGTON CLEAR     50  47  89 N6        30.01R
CINC-LUNKEN    PTCLDY    47  46  97 CALM      30.03R
HAMILTON       CLOUDY    46  45  96 CALM      30.03R
DAYTON         FOG       50  49  96 CALM      30.03R VSB 1/8
WRIGHT-PAT AFB FOG       50  50 100 NE2       30.01S VSB 1/4
DAYTON GENERAL FOG       47  47 100 E8        30.01R VSB<1/4
WILMINGTON     FOG       50  49  96 E6        30.01R VSB 1/4
$$

OHZ036-037-039>041-045>050-054>059-063>069-073>076-082>088-011300-
  CENTRAL AND SOUTHEAST OHIO

CITY           SKY/WX    TMP DP  RH WIND       PRES   REMARKS
COLUMBUS       CLOUDY    54  51  90 CALM      30.01R
OSU AIRPORT    FOG       50  49  96 CALM      30.02R VSB 1/4
BOLTON FIELD   FOG       52  52 100 E3        30.02R VSB 1/4
RICKENBACK AFB CLOUDY    53  51  96 CALM      30.01S FOG
NEWARK         CLOUDY    54  52  93 CALM      30.01R FOG
MARION         FOG       47  46  97 CALM      30.03R VSB 1/4
LANCASTER      CLOUDY    54  52  93 CALM      30.02R FOG
ZANESVILLE     CLOUDY    55  53  93 N3        30.01R FOG
NEW PHILLY     CLOUDY    57  55  93 CALM      30.02R FOG
$$


USA.gov is the U.S. government's official web portal to all federal, state and local government web resources and services.